Theta_e
317 316 316 316 316 316 315 315 315 314 313 314 316 318 320 320 320 319 319 321 323 323 323 322 321 321 320 314 318 318 314 312 310 308 311 314 314 313 312 313 313 312 313 316 316 316 315
318 316 316 318 318 317 318 318 318 318 318 319 320 320 321 320 320 321 321 321 323 322 322 322 321 319 313 306 319 317 316 314 311 309 312 314 313 315 314 314 313 313 313 314 316 316 315
317 317 317 318 319 320 320 320 320 321 321 321 321 321 320 320 321 320 321 321 322 321 322 321 319 315 313 319 320 317 316 313 311 310 310 312 312 313 314 313 314 314 313 312 313 315 313
318 318 318 320 320 321 320 322 322 321 323 323 322 321 320 320 320 321 321 322 322 322 321 321 320 310 310 320 320 318 315 313 311 310 310 309 311 312 314 314 312 312 311 312 311 312 313
321 319 320 320 320 319 320 320 321 323 324 324 324 323 322 321 321 320 321 321 322 322 320 318 316 308 311 316 315 312 312 311 310 310 313 310 310 312 313 310 306 308 305 310 311 311 312
318 319 319 319 317 318 319 319 321 323 323 322 321 321 322 322 321 322 321 321 321 319 314 308 306 308 314 317 314 310 311 311 310 313 311 310 311 310 308 307 307 306 311 310 311 313 312
316 316 315 316 315 316 315 318 317 314 314 314 314 314 315 315 315 313 309 307 305 308 306 312 312 312 311 311 312 312 312 314 313 313 309 311 308 309 308 310 310 309 311 313 312 311 314
313 313 313 312 313 313 314 314 314 315 315 314 314 315 314 314 315 315 310 307 307 308 307 311 310 309 314 312 310 312 312 314 315 314 311 311 311 309 308 310 311 312 313 312 311 311 311
312 312 313 312 312 312 312 313 314 313 313 313 313 314 314 315 314 314 315 310 308 307 307 308 312 310 312 311 310 312 310 311 313 313 312 312 313 312 311 311 312 311 312 312 312 312 311
309 310 311 311 312 312 311 312 312 311 312 312 311 312 312 313 313 314 312 310 309 308 304 305 305 306 308 310 310 313 313 310 312 312 313 313 313 313 312 313 312 313 311 313 313 312 313
306 306 308 311 311 311 311 311 311 310 311 311 312 311 311 311 310 309 309 309 308 306 317 309 307 307 306 309 308 309 311 311 311 313 313 312 312 314 315 314 312 313 312 312 312 311 311
306 307 307 308 310 311 312 311 310 311 309 310 310 309 309 308 308 308 309 308 307 312 317 312 308 305 305 306 306 308 309 310 309 311 309 310 309 309 311 310 311 311 310 308 307 308 312
304 304 305 306 307 309 310 309 309 311 310 310 309 308 306 305 305 307 309 307 307 314 311 311 311 307 305 305 305 310 305 306 306 306 306 307 308 306 309 308 308 310 309 311 311 311 313
303 302 303 304 306 307 307 309 310 310 310 310 310 307 306 305 303 306 307 304 308 310 310 308 309 310 308 307 306 307 306 305 304 304 304 304 306 305 305 307 309 308 310 312 314 312 310
300 302 302 303 303 304 305 306 306 309 309 308 309 306 306 305 304 305 305 306 307 305 306 307 309 309 312 312 311 309 309 308 305 304 305 305 306 306 305 306 307 307 309 310 312 311 311
299 299 300 301 302 302 303 303 304 306 307 308 308 306 305 306 303 305 303 306 302 305 304 305 308 307 308 306 311 312 311 310 312 306 306 307 307 309 310 308 307 307 308 312 311 314 314
298 299 299 298 299 300 301 301 302 303 304 305 307 305 304 306 302 304 305 303 304 304 305 304 305 305 305 305 305 306 311 309 308 309 307 308 309 309 309 308 308 310 310 310 311 311 312
293 294 295 297 298 298 298 299 300 302 301 302 303 302 304 305 302 303 305 303 304 303 303 304 304 304 304 305 305 306 310 307 307 308 311 310 309 309 310 307 307 308 309 310 312 311 311
292 290 290 291 293 294 295 297 297 299 300 303 300 301 303 303 304 303 303 304 302 301 302 303 304 304 305 305 304 305 306 307 307 308 310 308 312 311 310 307 308 309 308 307 307 307 312
289 290 291 291 291 291 291 292 294 296 299 299 300 300 300 301 300 303 305 303 304 302 301 301 302 302 303 305 305 305 306 306 305 307 307 306 309 310 312 309 308 307 307 307 308 308 308
290 289 289 289 290 291 292 293 293 293 296 299 299 299 300 302 300 303 303 303 303 301 301 301 301 301 302 303 304 305 305 306 306 306 306 305 305 305 305 305 306 306 307 306 307 308 308
292 291 289 289 289 289 290 291 293 293 294 297 298 298 298 299 300 303 303 304 302 302 301 301 301 301 301 301 301 303 305 305 306 304 306 306 306 306 307 306 306 307 307 307 306 306 307
291 291 292 290 290 292 290 290 291 293 294 295 295 298 298 298 301 302 303 303 303 302 302 301 300 301 302 300 300 301 301 302 304 304 305 306 304 305 306 305 307 308 306 306 306 306 306
289 291 291 291 291 289 291 291 291 291 294 295 295 295 297 298 298 299 301 302 303 303 303 302 301 302 301 302 302 302 303 303 303 303 304 305 305 305 307 307 308 305 304 304 305 304 304
291 292 292 292 291 292 291 290 292 291 291 294 294 295 295 295 296 296 298 300 299 300 302 303 303 303 303 302 301 302 300 302 302 302 303 304 305 306 305 305 304 303 303 303 303 303 302
291 291 291 291 291 291 291 291 291 291 291 293 295 294 295 294 294 296 299 300 301 302 303 301 303 303 303 301 302 303 304 303 303 302 302 302 302 304 303 304 302 302 302 302 301 301 300
292 292 292 292 292 291 291 291 291 291 291 292 292 292 295 295 295 295 297 297 299 301 302 301 302 302 302 302 304 301 303 302 302 301 303 303 300 304 304 302 303 301 301 302 302 301 304
293 293 293 293 293 293 291 291 291 290 291 292 293 293 294 294 294 295 296 296 296 299 300 301 302 301 299 303 303 299 299 300 300 300 300 300 300 298 297 294 298 300 302 302 300 302 303
294 294 294 295 295 293 292 291 291 290 290 291 292 292 293 294 294 295 295 294 297 297 300 301 303 300 301 301 296 297 298 296 299 299 298 298 298 296 298 297 298 301 301 302 303 303 302
Wind_Speed
29 29 27 27 26 25 25 24 23 23 22 23 22 23 22 22 23 24 23 20 20 21 22 22 24 24 25 16 20 13 11 11 11 9 4 5 5 4 2 3 4 3 2 9 9 12 7
33 31 30 28 28 26 25 24 23 23 23 23 23 23 23 24 24 23 23 24 20 21 22 23 24 23 21 11 10 13 16 17 11 7 4 2 5 5 4 3 1 4 8 11 9 7 6
34 32 30 29 26 25 24 25 25 25 24 25 25 25 27 26 27 27 26 27 25 23 22 24 25 23 24 31 22 22 22 17 12 8 5 3 3 4 4 4 5 5 5 7 6 5 6
34 32 29 29 28 28 27 26 28 29 27 28 30 29 31 29 32 32 31 29 28 25 23 23 25 24 19 22 22 23 21 20 16 11 11 8 4 4 3 5 5 3 2 3 3 3 3
36 34 31 30 27 26 30 28 28 29 29 34 36 36 36 35 36 37 36 35 32 26 23 22 22 16 18 12 8 7 9 14 9 7 9 6 2 4 1 3 4 4 5 5 7 4 1
13 18 22 24 21 24 28 29 27 30 28 24 27 28 33 33 37 37 33 31 27 24 22 19 19 10 20 15 12 7 5 4 6 4 6 4 2 2 3 4 5 5 5 4 5 1 2
12 10 9 7 5 11 13 12 14 9 9 8 7 8 5 3 2 6 6 5 5 6 11 12 3 8 6 6 5 3 5 4 7 4 4 3 3 8 10 8 4 4 4 4 3 5 2
11 10 9 9 12 13 11 8 7 7 8 10 8 10 11 6 3 4 2 2 3 4 10 17 27 33 35 23 7 15 13 10 8 7 5 1 7 11 4 6 6 5 4 6 7 6 6
14 10 11 11 13 13 12 12 12 14 13 13 11 13 15 13 9 5 4 6 4 4 7 11 25 21 37 26 19 25 16 12 6 7 9 9 6 4 7 4 5 6 6 4 7 5 3
18 18 18 19 18 17 15 15 13 14 15 14 13 15 16 14 11 12 9 9 4 4 3 7 5 7 10 12 7 20 29 14 5 11 6 8 11 10 4 5 8 7 9 8 5 3 5
15 16 18 17 25 20 19 15 13 14 14 12 13 12 13 14 7 7 7 8 7 3 4 1 4 3 6 11 3 3 22 23 10 6 7 8 5 6 12 9 8 6 7 8 5 5 1
12 10 15 17 12 19 14 14 16 16 15 14 11 10 10 10 8 8 9 11 9 4 7 4 6 7 6 7 3 5 4 12 7 2 4 5 3 4 6 2 5 1 3 5 4 4 6
12 12 9 12 15 14 15 15 18 19 15 15 14 13 11 8 6 9 14 11 2 4 2 4 5 5 5 6 5 5 6 7 6 3 8 4 15 4 5 4 0 4 4 1 2 2 8
11 11 12 11 10 10 13 14 20 19 21 15 19 19 16 13 9 10 13 4 6 3 5 3 4 2 6 4 4 7 8 6 5 3 1 5 6 9 7 22 11 10 9 5 7 5 4
13 12 11 10 11 14 12 16 13 15 20 17 22 21 21 18 15 13 12 3 5 4 4 7 3 3 4 4 3 4 6 6 9 11 9 5 6 2 4 5 12 5 9 11 3 1 1
14 15 14 12 11 8 11 13 16 12 6 15 25 22 25 21 19 18 3 8 5 4 3 4 2 5 3 6 2 5 6 2 4 10 5 4 5 4 2 3 4 6 5 2 1 8 13
14 12 13 13 13 14 13 11 11 15 13 8 24 15 13 21 21 14 6 7 4 14 2 2 1 3 2 3 2 3 4 4 6 4 7 1 4 4 4 2 1 1 3 2 3 3 7
12 14 15 14 14 14 14 13 13 12 14 15 7 2 14 29 9 5 9 6 4 3 3 5 2 5 3 2 4 4 4 4 10 5 3 3 2 3 1 4 5 4 3 2 5 5 2
9 9 11 12 13 15 15 14 14 15 14 8 4 4 15 31 9 5 5 8 1 2 4 5 5 5 4 3 1 4 5 6 10 7 2 3 3 3 1 0 5 6 8 9 3 3 1
11 11 10 9 10 11 12 13 15 14 13 14 2 2 5 16 7 15 12 9 7 8 5 3 2 1 1 2 4 5 3 4 9 6 12 3 5 1 2 2 4 1 10 8 6 2 4
9 10 11 11 11 10 11 11 10 13 13 10 5 4 4 2 4 6 13 8 12 7 8 5 4 5 3 2 4 10 10 9 13 17 3 3 3 4 4 1 2 8 11 10 7 5 4
11 11 10 11 11 12 11 12 11 9 12 13 6 3 2 4 4 7 10 9 13 15 8 7 7 9 13 12 10 6 7 8 6 5 7 10 5 6 10 15 14 12 17 16 13 14 16
16 15 14 13 13 12 12 12 12 12 12 11 12 9 7 4 2 4 6 5 16 11 11 17 13 4 8 16 13 18 21 15 7 6 7 8 5 5 7 3 3 4 15 15 12 12 6
17 17 17 17 15 15 14 13 14 14 15 15 10 9 5 3 4 6 8 9 14 16 12 16 20 7 8 6 8 8 11 9 9 7 8 6 4 4 3 2 5 3 1 8 8 6 6
21 20 18 18 18 18 17 16 17 16 17 19 18 15 7 6 8 12 16 14 16 14 12 18 16 23 17 11 2 2 3 2 3 7 6 5 4 3 3 5 6 7 5 6 7 5 5
24 24 24 23 22 20 20 18 18 17 18 19 18 16 13 4 11 20 5 9 6 5 5 8 11 20 8 3 2 6 6 5 5 3 4 4 1 5 3 3 5 13 3 3 3 5 4
26 24 23 23 22 21 23 22 20 19 19 20 20 17 18 13 21 15 9 9 11 5 3 3 9 14 19 5 4 3 5 5 6 6 5 3 1 7 5 4 7 5 8 6 4 10 4
26 26 26 27 27 26 25 23 21 20 20 20 22 18 22 14 27 20 25 29 28 16 7 3 5 4 4 6 5 4 3 6 4 4 6 6 7 4 3 2 7 8 4 7 7 5 7
33 32 32 31 33 27 27 24 22 20 20 19 20 20 20 29 22 16 31 42 33 33 22 14 8 8 8 3 3 3 2 1 4 4 2 4 7 5 8 7 5 9 4 7 4 8 16
Wind_Direction
240 239 239 238 239 240 242 246 248 250 253 256 259 261 263 268 279 285 288 289 295 302 309 315 317 322 324 315 291 300 301 310 315 330 347 346 23 0 2 304 324 182 284 304 302 309 269
237 238 240 239 241 242 245 245 249 252 254 256 258 264 268 271 278 282 288 290 290 300 307 311 311 315 317 294 296 290 292 297 293 313 348 12 19 349 293 291 312 321 292 282 294 285 260
236 238 240 243 242 245 248 250 250 250 253 257 258 262 264 269 273 276 276 287 292 293 299 307 308 310 303 281 286 282 282 277 276 277 297 306 338 337 326 317 333 306 310 315 249 250 232
236 239 239 239 243 244 247 249 251 251 251 255 257 260 264 266 270 272 269 272 281 286 290 296 301 305 285 293 282 280 276 271 268 267 287 276 269 308 261 311 347 349 55 299 286 160 277
238 235 234 237 242 256 257 256 256 251 250 251 252 250 253 257 263 267 269 275 278 282 284 283 290 290 273 278 306 315 294 254 258 261 269 231 191 191 220 85 2 359 250 223 311 207 170
202 223 237 249 258 258 252 251 251 247 251 249 249 250 243 246 255 258 266 266 273 274 269 271 264 276 256 265 269 286 284 238 223 207 159 185 184 96 76 114 228 226 241 250 242 245 100
211 210 190 179 162 159 140 172 183 154 125 104 70 74 83 59 311 274 250 285 259 256 233 216 228 238 229 236 247 218 241 217 182 180 168 171 126 220 199 198 164 161 213 271 260 259 341
183 195 216 225 243 232 235 222 224 243 269 269 270 286 278 260 293 329 232 182 94 320 298 259 254 253 251 258 270 219 210 203 177 196 152 105 224 239 179 197 212 232 250 266 295 268 183
223 221 234 247 246 246 245 246 251 258 250 237 231 233 243 240 241 249 247 204 207 306 272 268 253 248 245 249 241 236 213 217 183 169 195 199 205 73 186 172 202 230 206 219 223 317 298
241 235 226 240 245 242 239 240 242 244 235 221 221 218 226 222 225 223 204 182 186 33 318 276 238 242 209 216 273 247 232 209 220 201 193 239 223 237 164 204 187 244 204 215 241 167 240
237 242 233 232 229 229 240 220 220 228 228 230 233 239 239 218 212 194 186 171 133 72 320 193 199 183 176 180 338 42 218 213 210 190 144 221 185 198 231 229 178 231 195 195 199 189 18
229 236 237 230 231 224 218 215 234 230 224 222 227 234 231 228 217 187 150 148 135 77 252 270 163 187 155 224 291 85 151 209 232 238 271 216 156 164 197 162 175 53 77 60 62 109 246
236 239 239 242 242 233 236 237 233 229 224 230 226 223 222 209 185 177 165 150 71 195 154 226 207 181 208 189 196 157 158 173 176 154 244 289 251 210 208 299 301 156 99 266 263 172 242
238 234 238 237 230 234 235 231 235 233 240 238 223 219 217 205 177 171 167 63 208 215 279 15 360 198 192 173 225 181 145 179 212 132 64 201 307 183 205 212 191 203 180 191 197 193 236
243 240 237 234 229 243 244 242 252 217 233 245 235 205 215 206 185 170 151 200 224 213 332 353 317 275 221 211 212 180 216 193 187 173 182 201 267 235 156 196 167 205 203 230 290 137 78
238 238 240 240 242 238 238 251 246 241 214 231 205 202 222 210 188 174 144 235 221 233 14 355 283 42 341 355 195 191 202 347 210 189 180 204 291 264 286 137 249 189 161 129 256 225 241
233 234 238 241 238 238 234 226 241 245 230 250 204 194 221 208 188 174 208 215 248 253 305 290 351 329 352 17 327 318 359 26 2 358 161 124 165 257 50 61 178 156 204 203 148 186 239
237 240 242 241 243 241 240 237 233 233 245 258 250 164 180 188 178 210 214 190 219 251 180 226 227 229 205 10 352 354 2 18 355 331 39 7 97 281 217 45 47 70 28 40 214 231 272
240 237 239 242 242 246 247 244 240 235 233 225 223 202 193 187 194 214 216 208 264 253 209 201 219 225 219 119 344 348 8 1 30 21 66 346 39 345 35 230 44 30 9 15 337 14 224
246 244 243 243 241 243 241 243 240 236 238 234 259 297 205 224 240 203 200 198 215 224 264 307 293 134 132 145 118 314 338 341 20 49 36 27 147 247 309 17 217 301 322 341 6 359 345
252 248 246 247 247 246 240 243 241 235 226 230 209 225 199 204 243 226 199 181 199 214 210 209 253 195 150 164 217 208 221 252 291 293 80 60 303 278 285 215 316 317 308 279 220 228 232
258 263 256 250 249 246 243 239 235 236 225 221 199 217 254 273 276 198 206 192 205 210 167 220 221 191 215 228 216 217 199 212 200 236 225 180 249 255 255 261 277 275 263 256 265 255 221
252 248 257 259 249 249 244 243 235 225 222 222 229 248 267 276 305 224 225 225 220 189 220 229 216 179 177 221 228 253 274 269 235 192 181 165 183 178 258 239 261 223 231 235 243 247 229
256 253 249 250 253 249 246 238 241 228 228 228 221 219 226 258 211 253 307 240 228 254 237 232 225 191 216 281 295 273 247 251 237 208 171 165 183 167 246 98 241 258 263 216 224 239 248
248 251 253 251 246 244 246 238 239 238 230 235 234 227 220 252 250 278 266 252 267 278 258 258 230 238 259 266 106 194 327 302 227 223 204 198 154 206 224 230 311 298 233 197 186 262 250
252 250 246 247 249 243 239 243 241 237 231 236 235 234 230 242 232 236 276 301 245 232 207 217 207 231 277 171 175 186 200 173 203 234 230 116 106 186 160 203 232 255 225 138 101 283 251
247 243 244 246 244 245 234 237 238 235 234 237 246 241 231 248 252 238 219 229 228 209 236 194 203 204 223 191 211 176 218 177 203 189 163 155 140 206 218 217 262 246 182 149 191 265 167
250 239 241 246 245 238 236 233 233 233 234 237 246 240 234 245 259 245 243 238 246 247 230 203 148 183 162 196 188 189 184 201 182 180 172 166 169 191 101 115 277 189 113 194 222 189 240
248 246 245 248 253 234 230 229 227 232 236 233 247 256 248 242 253 261 254 249 244 242 230 219 203 154 231 155 209 140 165 119 156 222 140 220 185 183 180 207 232 207 227 219 267 285 291